Weather History for Caldwell, ID

Change the Weather History Date:

Monday, March 25, 2013

  Actual Average (KBOI) Record (KBOI)
Temperature  
Mean Temperature 44 °F 47 °F  
Max Temperature 57 °F 57 °F 78 °F (1877)
Min Temperature 30 °F 36 °F 20 °F (1965)
Degree Days  
Heating Degree Days 22 18  
Month to date heating degree days 530  
Since 1 July heating degree days 4689  
Cooling Degree Days 0 0  
Month to date cooling degree days 0  
Year to date cooling degree days 0  
Moisture  
Dew Point 16 °F    
Average Humidity 34    
Maximum Humidity 47    
Minimum Humidity 25    
Precipitation  
Precipitation 0.00 in 0.05 in 0.64 in (1897)
Month to date precipitation 1.11  
Year to date precipitation 3.34  
Snow  
Snow 0.00 in 0.00 in 5.00 in (1948)
Month to date snowfall 1.1  
Since 1 July snowfall 18.7  
Snow Depth -    
Sea Level Pressure  
Sea Level Pressure 30.08 in    
Wind  
Wind Speed 13 mph (SE)    
Max Wind Speed 22 mph    
Max Gust Speed 26 mph    
Visibility 10 miles    
Events      
T = Trace of Precipitation, MM = Missing Value Source: NWS Daily Summary

Daily Weather History Graph

Daily Weather History Graph

Search for Another Location

Airport:

Trip Planner

Search our weather history database for the weather conditions in past years. The results will help you decide how hot, cold, wet, or windy it might be!

Date:

Astronomy

Mar. 25, 2013 Rise Set
Actual Time 7:40 AM MDT 8:05 PM MDT
Civil Twilight 7:11 AM MDT 8:34 PM MDT
Nautical Twilight 6:37 AM MDT 9:08 PM MDT
Astronomical Twilight 6:02 AM MDT 9:43 PM MDT
Moon 6:40 PM MDT (3/25) 6:28 AM MDT (3/25)
Length of Visible Light 13h 22m
Length of Day
12h 25m
Waxing Gibbous, 97% of the Moon is Illuminated
Mar 25
Waxing Gibbous
Mar 27
Full
Apr 2
Last Quarter
Apr 10
New
Apr 18
First Quarter

Hourly Weather History & Observations

Time (MDT) Temp. Windchill Dew Point Humidity Pressure Visibility Wind Dir Wind Speed Gust Speed Precip Events Conditions
12:15 AM 33.8 °F 25.8 °F 14.0 °F 44% 30.16 in 10.0 mi SE 10.4 mph - N/A   Clear
12:35 AM 33.8 °F 27.0 °F 12.2 °F 41% 30.16 in 10.0 mi SE 8.1 mph - N/A   Scattered Clouds
12:55 AM 33.8 °F 26.4 °F 14.0 °F 44% 30.16 in 10.0 mi SE 9.2 mph - N/A   Overcast
1:15 AM 32.0 °F 24.2 °F 12.2 °F 44% 30.16 in 10.0 mi SE 9.2 mph - N/A   Scattered Clouds
1:35 AM 30.2 °F 21.3 °F 12.2 °F 47% 30.16 in 10.0 mi SE 10.4 mph - N/A   Clear
1:55 AM 33.8 °F 25.8 °F 12.2 °F 41% 30.16 in 10.0 mi SE 10.4 mph - N/A   Partly Cloudy
2:15 AM 33.8 °F 24.8 °F 12.2 °F 41% 30.15 in 10.0 mi SE 12.7 mph - N/A   Mostly Cloudy
2:55 AM 35.6 °F 26.2 °F 12.2 °F 38% 30.16 in 10.0 mi SE 15.0 mph - N/A   Clear
3:15 AM 35.6 °F 27.1 °F 12.2 °F 38% 30.16 in 10.0 mi SE 12.7 mph - N/A   Clear
3:35 AM 35.6 °F 26.6 °F 12.2 °F 38% 30.15 in 10.0 mi SE 13.8 mph - N/A   Clear
3:55 AM 33.8 °F 24.3 °F 12.2 °F 41% 30.15 in 10.0 mi SE 13.8 mph 20.7 mph N/A   Clear
4:15 AM 35.6 °F 26.6 °F 12.2 °F 38% 30.15 in 10.0 mi SE 13.8 mph - N/A   Mostly Cloudy
4:35 AM 35.6 °F 27.1 °F 12.2 °F 38% 30.15 in 10.0 mi SE 12.7 mph - N/A   Overcast
4:55 AM 33.8 °F 24.8 °F 12.2 °F 41% 30.15 in 10.0 mi ESE 12.7 mph - N/A   Scattered Clouds
5:15 AM 33.8 °F 24.8 °F 12.2 °F 41% 30.15 in 10.0 mi SE 12.7 mph - N/A   Clear
5:35 AM 35.6 °F 26.2 °F 12.2 °F 38% 30.15 in 10.0 mi SE 15.0 mph - N/A   Clear
5:55 AM 35.6 °F 27.1 °F 12.2 °F 38% 30.15 in 10.0 mi SE 12.7 mph - N/A   Clear
6:15 AM 35.6 °F 27.1 °F 12.2 °F 38% 30.15 in 10.0 mi SE 12.7 mph 16.1 mph N/A   Clear
6:35 AM 35.6 °F 28.0 °F 12.2 °F 38% 30.15 in 10.0 mi SE 10.4 mph - N/A   Mostly Cloudy
6:55 AM 33.8 °F 25.3 °F 12.2 °F 41% 30.15 in 10.0 mi SE 11.5 mph - N/A   Mostly Cloudy
7:15 AM 33.8 °F 25.8 °F 12.2 °F 41% 30.15 in 10.0 mi SE 10.4 mph - N/A   Overcast
7:35 AM 33.8 °F 25.8 °F 14.0 °F 44% 30.15 in 10.0 mi SE 10.4 mph - N/A   Overcast
7:55 AM 33.8 °F 25.3 °F 12.2 °F 41% 30.15 in 10.0 mi SE 11.5 mph - N/A   Overcast
8:15 AM 33.8 °F 25.8 °F 14.0 °F 44% 30.15 in 10.0 mi SE 10.4 mph - N/A   Overcast
8:35 AM 35.6 °F 27.1 °F 14.0 °F 41% 30.15 in 10.0 mi SE 12.7 mph - N/A   Overcast
8:55 AM 35.6 °F 26.6 °F 14.0 °F 41% 30.16 in 10.0 mi SE 13.8 mph - N/A   Overcast
9:15 AM 37.4 °F 29.3 °F 14.0 °F 38% 30.16 in 10.0 mi SSE 12.7 mph - N/A   Overcast
9:35 AM 37.4 °F 28.9 °F 14.0 °F 38% 30.16 in 10.0 mi SSE 13.8 mph - N/A   Overcast
9:55 AM 39.2 °F 30.8 °F 14.0 °F 36% 30.16 in 10.0 mi SSE 15.0 mph 21.9 mph N/A   Overcast
10:15 AM 39.2 °F 30.5 °F 14.0 °F 36% 30.16 in 10.0 mi SE 16.1 mph - N/A   Mostly Cloudy
10:35 AM 41.0 °F 32.2 °F 14.0 °F 33% 30.15 in 10.0 mi SSE 18.4 mph 23.0 mph N/A   Mostly Cloudy
10:55 AM 42.8 °F 35.4 °F 15.8 °F 34% 30.15 in 10.0 mi SE 15.0 mph - N/A   Scattered Clouds
11:15 AM 44.6 °F 36.9 °F 14.0 °F 29% 30.15 in 10.0 mi SSE 18.4 mph 25.3 mph N/A   Partly Cloudy
11:35 AM 44.6 °F 37.2 °F 15.8 °F 31% 30.15 in 10.0 mi SSE 17.3 mph - N/A   Partly Cloudy
11:55 AM 46.4 °F 38.5 °F 15.8 °F 29% 30.14 in 10.0 mi SSE 21.9 mph 26.5 mph N/A   Mostly Cloudy
12:15 PM 46.4 °F 39.2 °F 15.8 °F 29% 30.14 in 10.0 mi SE 18.4 mph 25.3 mph N/A   Overcast
12:35 PM 48.2 °F - 15.8 °F 27% 30.13 in 10.0 mi SE 16.1 mph 24.2 mph N/A   Mostly Cloudy
12:55 PM 48.2 °F - 17.6 °F 30% 30.13 in 10.0 mi SE 16.1 mph 24.2 mph N/A   Mostly Cloudy
1:15 PM 50.0 °F - 17.6 °F 28% 30.11 in 10.0 mi SSE 19.6 mph 25.3 mph N/A   Overcast
1:35 PM 50.0 °F - 17.6 °F 28% 30.10 in 10.0 mi SE 16.1 mph 23.0 mph N/A   Overcast
1:55 PM 51.8 °F - 17.6 °F 26% 30.10 in 10.0 mi SSE 17.3 mph - N/A   Overcast
2:15 PM 51.8 °F - 17.6 °F 26% 30.08 in 10.0 mi SE 16.1 mph 25.3 mph N/A   Overcast
2:35 PM 51.8 °F - 17.6 °F 26% 30.08 in 10.0 mi SSE 19.6 mph - N/A   Overcast
2:55 PM 51.8 °F - 19.4 °F 28% 30.06 in 10.0 mi SSE 15.0 mph 23.0 mph N/A   Overcast
3:15 PM 53.6 °F - 19.4 °F 26% 30.05 in 10.0 mi SSE 19.6 mph - N/A   Overcast
3:35 PM 53.6 °F - 19.4 °F 26% 30.04 in 10.0 mi SSE 18.4 mph 24.2 mph N/A   Overcast
3:55 PM 55.4 °F - 19.4 °F 25% 30.03 in 10.0 mi SE 13.8 mph - N/A   Overcast
4:15 PM 55.4 °F - 19.4 °F 25% 30.02 in 10.0 mi ESE 17.3 mph 23.0 mph N/A   Overcast
4:35 PM 55.4 °F - 19.4 °F 25% 30.01 in 10.0 mi ESE 17.3 mph 20.7 mph N/A   Overcast
4:55 PM 55.4 °F - 21.2 °F 26% 30.01 in 10.0 mi SE 13.8 mph 18.4 mph N/A   Overcast
5:15 PM 55.4 °F - 21.2 °F 26% 30.00 in 10.0 mi SE 18.4 mph - N/A   Mostly Cloudy
5:35 PM 57.2 °F - 21.2 °F 25% 29.99 in 10.0 mi SE 16.1 mph 21.9 mph N/A   Mostly Cloudy
5:55 PM 55.4 °F - 19.4 °F 25% 29.98 in 10.0 mi SE 15.0 mph - N/A   Partly Cloudy
6:15 PM 53.6 °F - 19.4 °F 26% 29.97 in 10.0 mi SE 16.1 mph 21.9 mph N/A   Clear
6:35 PM 53.6 °F - 21.2 °F 28% 29.97 in 10.0 mi SE 16.1 mph - N/A   Clear
6:55 PM 53.6 °F - 21.2 °F 28% 29.96 in 10.0 mi SE 13.8 mph - N/A   Partly Cloudy
7:15 PM 53.6 °F - 19.4 °F 26% 29.96 in 10.0 mi SE 13.8 mph - N/A   Clear
7:35 PM 53.6 °F - 21.2 °F 28% 29.96 in 10.0 mi SE 13.8 mph - N/A   Clear
7:55 PM 51.8 °F - 21.2 °F 30% 29.96 in 10.0 mi SE 11.5 mph - N/A   Clear
8:15 PM 51.8 °F - 21.2 °F 30% 29.95 in 10.0 mi SE 11.5 mph - N/A   Clear
8:35 PM 50.0 °F - 21.2 °F 32% 29.95 in 10.0 mi SE 9.2 mph - N/A   Clear
8:55 PM 50.0 °F - 21.2 °F 32% 29.95 in 10.0 mi SE 11.5 mph - N/A   Clear
9:15 PM 50.0 °F - 21.2 °F 32% 29.95 in 10.0 mi SE 11.5 mph - N/A   Mostly Cloudy
9:35 PM 48.2 °F - 19.4 °F 32% 29.95 in 10.0 mi SE 11.5 mph - N/A   Mostly Cloudy
9:55 PM 48.2 °F - 19.4 °F 32% 29.95 in 10.0 mi SE 12.7 mph - N/A   Partly Cloudy
10:15 PM 46.4 °F 41.9 °F 19.4 °F 34% 29.95 in 10.0 mi SE 9.2 mph - N/A   Clear
10:35 PM 46.4 °F 42.4 °F 19.4 °F 34% 29.95 in 10.0 mi SSE 8.1 mph - N/A   Clear
10:55 PM 46.4 °F 40.4 °F 19.4 °F 34% 29.96 in 10.0 mi SSE 13.8 mph - N/A   Scattered Clouds
11:15 PM 48.2 °F - 19.4 °F 32% 29.96 in 10.0 mi SE 10.4 mph - N/A   Mostly Cloudy
11:35 PM 48.2 °F - 19.4 °F 32% 29.95 in 10.0 mi ESE 11.5 mph - N/A   Overcast
11:55 PM 48.2 °F - 21.2 °F 34% 29.94 in 10.0 mi ESE 12.7 mph - N/A   Overcast